NOAA 16 DEB

Satellite information

Favourite Embed

Satellite Type and Status

DEBRISIN ORBIT

Key statistics

Satellite NOAA 16 DEB at a glance.

Uptime

9158

Days in orbit

Revolutions

≈ 14.4

Per day

Orbit

SSO

Sun Synchronous Orbit

Inclination

99.0

Latest

Satellite identification and parameters

Extended collection of information and parameters for NOAA 16 DEB.

Object identification

Identified? True

Debris? True

Object name: NOAA 16 DEB

International designator: 2000-055PA

Object number (NORAD): 41661

Object ID (CCSDS): 41661

Country: UNITED STATES OF AMERICA (US)

Current information (Y/N): Y

RCS size: SMALL

Orbital parameters

Period: 99.903 minutes

Inclination: 99.0402 deg

SMA: 7132.038 km

Apoapsis: 768.566 km

Periapsis: 739.24 km

RAAN: 112.0672 deg

Eccentricy: 0.00205593

Argument of periapsis: 239.1525 deg

Mean anomaly: 120.764 deg

Mean motion: 14.41392577 rev/day

Mean motion (dot): 0.00011334 rev/day2

B* drag term: 0.0034986886 1/REarth

Two-line elements (TLE)

Creation date: Oct. 18, 2025, 2:17 a.m.

Reference frame: TEME

Reference center: EARTH

Epoch: Oct. 17, 2025, 10:59 p.m. UTC

TLE line 0: 0 NOAA 16 DEB

TLE line 1: 1 41661U 00055PA 25290.95831563 .00011334 00000-0 34987-2 0 9991

TLE line 2: 2 41661 99.0402 112.0672 0020559 239.1525 120.7640 14.41392577492784

Live tracking on map

Real-time ground track for satellite NOAA 16 DEB.

In-orbit conjunctions

A list of the most updated potential collisions computed for object NOAA 16 DEB.

Target Orbit TCA Probability of collision Miss distance Type
COSMOS 1954 LEO 2025-04-21 08:33:30 0.000167708 570.0 (m) PAYLOAD
SL-8 R/B LEO 2024-11-12 15:39:34 0.0002072932 73.0 (m) ROCKET BODY
SL-8 R/B LEO 2024-09-28 16:39:49 0.0002180155 60.0 (m) ROCKET BODY

Associated space launch

The NOAA K, L and M POES satellites begin the fifth generation of improved environmental monitoring in support of NOAA missions. The instrument payload has significant improvements and additions/deletions. The instrument changes have effected the spacecraft subsystems and data formats.

NOAA 16 DEB was lifted into orbit during the mission ‘Titan II SLV | NOAA 16’, on board a Titan II SLV space rocket.

The launch took place on Sept. 21, 2000, 10:22 a.m. from Space Launch Complex 4W.

For more information about the launch, click the button.

Launch to space Titan II SLV | NOAA 16
Titan II SLV | NOAA 16

Agency: N/A

Status: Launch Successful

Launch date: Sept. 21, 2000, 10:22 a.m. UTC

Rocket: Titan II SLV

Launch pad: Space Launch Complex 4W

Location: Vandenberg SFB, CA, USA

...

Latest news about this satellite

There are no fresh news available about this satellite. Check back as we update our databases every day.


Newsletter sign-up

Weekly statistics, charts and insights to help you stay on top of the space industry.